Home > Time Zones > World Clock > Weather > U.S.A. > Yuma > Past weeks

Flag for U.S.A. Weather past 2 weeks in Yuma, Arizona, U.S.A.

Now
101 °F

Passing clouds.


Feels Like: 100 °F
Forecast: 88 / 110 °F
Wind: 9 mph from Southwest

Location: Yuma Marine Corps Air Station

Current Time: Jul 30, 2014 at 9:23:11 PM

Latest Report: Jul 30, 2014 at 8:57 PM


Visibility: 10 mi

Pressure: 29.74 "Hg

Humidity: 22%

Dew point: 56 °F

Location of YumaLocation

Historic Weather in Yuma — Graph

°F

Yuma temperature yesterday

Maximum temperature yesterday: 110 °F (at 3:57 PM)
Minimum temperature yesterday: 86 °F (at 5:57 AM)
Average temperature yesterday: 99 °F

Past Weeks' High & Low Weather Summary

 TemperatureHumidityPressure
High117 °F (Jul 23, 2:57 PM)65% (Jul 27, 8:57 AM)29.97 "Hg (Jul 27, 8:57 AM)
Low79 °F (Jul 17, 5:57 AM)4% (Jul 17, 4:57 PM)29.62 "Hg (Jul 24, 4:57 PM)
Average97 °F25%29.81 "Hg
* Reported Jul 15 7:57 PM — Jul 30 7:57 PM, Yuma, Weather by CustomWeather, © 2014

Note: Actual official high and low records may vary slightly from our data, if they occured in-between our weather recording intervals... More about our weather records

Advertising

Yuma weather history for previous 24 hours

 ConditionsComfort  
Time TempWeatherWind HumidityBarometerVisibility
7:57 PM
Jul 30
103 °FPassing clouds.12 mph21%29.72 "Hg10 mi
6:57 PM111 °FPassing clouds.7 mph11%29.70 "Hg10 mi
5:57 PM112 °FPassing clouds.8 mph11%29.70 "Hg10 mi
4:57 PM113 °FScattered clouds.9 mph11%29.71 "Hg10 mi
3:57 PM112 °FScattered clouds.9 mph11%29.73 "Hg10 mi
2:57 PM113 °FPassing clouds.7 mph11%29.75 "Hg10 mi
1:57 PM112 °FPassing clouds.9 mph11%29.77 "Hg10 mi
12:57 PM111 °FPassing clouds.6 mph11%29.79 "Hg10 mi
11:57 AM110 °FPassing clouds.9 mph11%29.80 "Hg10 mi
10:57 AM108 °FPassing clouds.6 mph12%29.82 "Hg10 mi
9:57 AM104 °FSunny.6 mph17%29.82 "Hg10 mi
8:57 AM99 °FPassing clouds.3 mph21%29.82 "Hg10 mi
7:57 AM93 °FPassing clouds.6 mph24%29.82 "Hg10 mi
6:57 AM88 °FPassing clouds.5 mph34%29.81 "Hg10 mi
5:57 AM88 °FPassing clouds.5 mph34%29.80 "Hg10 mi
4:57 AM89 °FClear.6 mph29%29.79 "Hg10 mi
3:57 AM89 °FClear.3 mph31%29.79 "Hg10 mi
2:57 AM90 °FClear.6 mph31%29.79 "Hg10 mi
1:57 AM92 °FClear.8 mph30%29.79 "Hg10 mi
12:57 AM94 °FClear.6 mph25%29.80 "Hg10 mi
11:57 PM
Jul 29
94 °FClear.5 mph31%29.80 "Hg10 mi
10:57 PM95 °FClear.7 mph30%29.80 "Hg10 mi
9:57 PM98 °FPassing clouds.7 mph27%29.79 "Hg10 mi
Weather by CustomWeather, © 2014

See weather overviewHow to use our weather pages